カタログに戻る

CZ-6A DEB

運用中PO
NORAD 61125·DEBRIS·🇨🇳 China

打ち上げ Aug 6, 2024 から Taiyuan Satellite Launch Center

Loading…

次のパス (今後24時間)

TLE

最新Source: Space-Track

元期: Sep 14, 2026, 10:47 UTC

1 61125U 24140PT  26257.44977660  .00000331  00000-0  16233-3 0  9996
2 61125  88.8485 252.1845 0067702 285.2589  74.1120 14.14374300106533

AllMySatでCZ-6A DEBをリアルタイム追跡

Download on the App Store